{"data":{"norad_id":61677,"intl_designator":"2024-193S","name":"STARLINK-32323","alt_names":[],"object_type":"PAYLOAD","status":"ACTIVE","operator":null,"country":"US","launch_date":"2024-10-26","launch_site_code":"AFETR","launch_vehicle":null,"mission":null,"orbit_class":"UNKNOWN","rcs_meters":null,"size_class":null,"mass_kg":null,"dimensions":null,"purposes":["comms"],"wikipedia_slug":null,"has_3d_model":false,"image_url":null,"decayed_at":null,"tle_current":{"epoch":"2026-09-21T16:54:41.727168Z","epoch_age_seconds":84352,"freshness":"FRESH","line1":"1 61677U 24193S   26264.70464962 -.00000025  00000+0  10400-4 0  9990","line2":"2 61677  53.1598 255.8385 0001235  86.6080 273.5064 15.34389548106605","mean_motion":15.34389548,"eccentricity":0.0001235,"inclination_deg":53.1598,"raan_deg":255.8385,"arg_perigee_deg":86.608,"mean_anomaly_deg":273.5064,"bstar":1.04e-5,"rev_number":10660,"period_min":93.848397356262,"perigee_km":461.88945832383,"apogee_km":463.57915353639,"semimajor_km":6840.8713059301,"source":"CELESTRAK","updated_at":"2026-09-22T09:00:49.403101Z"}}}